Location: *
(50.8512°N, 5.6907°E)
Time: 22:54:36
(UTC+00:00)

Cosmos 2360 Rocket - Pass Details

Date: 09 April 2020
Orbit: 834 x 845 km, 71.0° (Epoch: 23 May)

Event Time Altitude Azimuth Distance (km) Brightness Sun altitude
Rises 23:12:20 0° 330° (NNW) 3,395 6.3 -30.8°
Reaches altitude 10° 23:14:47 10° 332° (NNW) 2,459 5.4 -30.9°
Enters shadow 23:19:32 63° 350° (N) 934 2.5 -31.0°
